This is the latest recevied weather packets stored in our database for station/object N3FAA. If no packets are shown the sender has not sent any weather packets the latest 10 day(s).
| Time | Temp. | Humidity | Pressure | Rain* | Wind** | Luminosity | Snow |
|---|---|---|---|---|---|---|---|
| 1778191696 | 32.78° C | 17% | 1010.7 hPa | 0 mm | - | 663 W/m² | - |
| 1778191395 | 32.78° C | 17% | 1011 hPa | 0 mm | - | 665 W/m² | - |
| 1778191090 | 33.33° C | 17% | 1010.8 hPa | 0 mm | - | 675 W/m² | - |
| 1778190788 | 32.78° C | 17% | 1010.9 hPa | 0 mm | - | 652 W/m² | - |
| 1778190485 | 32.78° C | 17% | 1010.7 hPa | 0 mm | - | 633 W/m² | - |
| 1778190182 | 33.89° C | 18% | 1011.1 hPa | 0 mm | - | 666 W/m² | - |
| 1778189877 | 33.33° C | 17% | 1011.1 hPa | 0 mm | - | 708 W/m² | - |
| 1778189574 | 33.33° C | 18% | 1011.1 hPa | 0 mm | - | 542 W/m² | - |
| 1778189271 | 33.33° C | 16% | 1011.4 hPa | 0 mm | - | 720 W/m² | - |
| 1778188967 | 33.33° C | 16% | 1011.5 hPa | 0 mm | - | 699 W/m² | - |
| 1778188664 | 33.33° C | 15% | 1011.7 hPa | 0 mm | - | 664 W/m² | - |
| 1778188360 | 32.78° C | 16% | 1011.3 hPa | 0 mm | - | 645 W/m² | - |
| 1778188057 | 32.78° C | 16% | 1011.6 hPa | 0 mm | - | 664 W/m² | - |
| 1778187754 | 32.78° C | 16% | 1011.8 hPa | 0 mm | - | 711 W/m² | - |
| 1778187451 | 32.78° C | 16% | 1011.7 hPa | 0 mm | - | 737 W/m² | - |
| 1778187147 | 32.22° C | 17% | 1011.8 hPa | 0 mm | - | 752 W/m² | - |
| 1778186843 | 32.22° C | 17% | 1012.1 hPa | 0 mm | - | 755 W/m² | - |
| 1778186542 | 32.78° C | 18% | 1012 hPa | 0 mm | - | 750 W/m² | - |
| 1778186239 | 32.78° C | 15% | 1011.9 hPa | 0 mm | - | 760 W/m² | - |
| 1778185936 | 32.78° C | 16% | 1011.9 hPa | 0 mm | - | 761 W/m² | - |
| 1778185632 | 31.67° C | 17% | 1012.1 hPa | 0 mm | - | 742 W/m² | - |
| 1778185329 | 31.67° C | 17% | 1012.4 hPa | 0 mm | - | 758 W/m² | - |
| 1778185023 | 32.22° C | 16% | 1012.2 hPa | 0 mm | - | 778 W/m² | - |
| 1778184721 | 31.11° C | 18% | 1012.5 hPa | 0 mm | - | 782 W/m² | - |
| 1778184417 | 31.67° C | 18% | 1012.3 hPa | 0 mm | - | 749 W/m² | - |
* Rain latest hour (hover to see other rain measurements)
** Current wind speed in m/s (hover to see current wind gust speed)